Location: ????????
(55.0559°N, 39.1270°E)
Time: 09:22:29
(UTC+00:00)

NOSS 3-2 (A) - Pass Details

Date: 15 November 2025
Orbit: 668 x 1535 km, 63.4° (Epoch: 11 December)

Event Time Altitude Azimuth Distance (km) Brightness Sun altitude
Exits shadow 01:31:50 41° 334° (NNW) 1,522 4.3 -28.8°
Maximum altitude 01:33:56 54° 24° (NNE) 1,351 4.3 -28.5°
Drops below altitude 10° 01:41:48 10° 101° (E) 3,345 7.2 -27.4°
Sets 01:45:01 0° 106° (ESE) 4,429 8.0 -26.9°
